Time,TemperatureF,DewpointF,PressureIn,WindDirection,WindDirectionDegrees,WindSpeedMPH,WindSpeedGustMPH,Humidity,HourlyPrecipIn,Conditions,Clouds,dailyrainin,SolarRadiationWatts/m^2,SoftwareType,DateUTC
2013-12-09 00:13:00,34.5,18.0,30.32,SE,136,0.0,2.0,51,0.00,,,0.00,0,weatherlink.com 1.10,2013-12-09 08:13:00,
2013-12-09 00:28:00,34.5,17.0,30.32,SE,132,0.0,1.0,50,0.00,,,0.00,0,weatherlink.com 1.10,2013-12-09 08:28:00,
2013-12-09 00:43:00,34.5,17.0,30.32,NW,304,0.0,4.0,50,0.00,,,0.00,0,weatherlink.com 1.10,2013-12-09 08:43:00,
2013-12-09 00:58:00,34.0,17.0,30.32,East,99,0.0,4.0,51,0.00,,,0.00,0,weatherlink.com 1.10,2013-12-09 08:58:00,
2013-12-09 01:13:00,34.5,17.0,30.31,ESE,106,0.0,5.0,50,0.00,,,0.00,0,weatherlink.com 1.10,2013-12-09 09:13:00,
2013-12-09 01:28:00,34.6,18.0,30.32,NE,34,1.0,2.0,50,0.00,,,0.00,0,weatherlink.com 1.10,2013-12-09 09:28:00,
2013-12-09 01:43:00,34.5,17.0,30.32,ESE,123,0.0,1.0,50,0.00,,,0.00,0,weatherlink.com 1.10,2013-12-09 09:43:00,
2013-12-09 01:58:00,33.7,18.0,30.32,NE,48,0.0,1.0,52,0.00,,,0.00,0,weatherlink.com 1.10,2013-12-09 09:58:00,
2013-12-09 02:13:00,33.4,18.0,30.32,NE,35,2.0,2.0,53,0.00,,,0.00,0,weatherlink.com 1.10,2013-12-09 10:13:00,
2013-12-09 02:28:00,34.1,17.0,30.32,NE,46,1.0,1.0,50,0.00,,,0.00,0,weatherlink.com 1.10,2013-12-09 10:28:00,
2013-12-09 02:43:00,33.7,17.0,30.32,NNE,12,1.0,2.0,51,0.00,,,0.00,0,weatherlink.com 1.10,2013-12-09 10:43:00,
2013-12-09 02:58:00,33.7,17.0,30.32,NE,55,1.0,4.0,50,0.00,,,0.00,0,weatherlink.com 1.10,2013-12-09 10:58:00,
2013-12-09 03:13:00,34.4,16.0,30.32,North,10,2.0,3.0,48,0.00,,,0.00,0,weatherlink.com 1.10,2013-12-09 11:13:00,
2013-12-09 03:28:00,34.3,16.0,30.33,SE,129,0.0,1.0,48,0.00,,,0.00,0,weatherlink.com 1.10,2013-12-09 11:28:00,
2013-12-09 03:43:00,34.2,16.0,30.32,SE,139,0.0,1.0,47,0.00,,,0.00,0,weatherlink.com 1.10,2013-12-09 11:43:00,
2013-12-09 03:58:00,34.7,16.0,30.32,NE,43,0.0,2.0,46,0.00,,,0.00,0,weatherlink.com 1.10,2013-12-09 11:58:00,
2013-12-09 04:13:00,34.5,16.0,30.33,NE,54,0.0,1.0,47,0.00,,,0.00,0,weatherlink.com 1.10,2013-12-09 12:13:00,
2013-12-09 04:28:00,33.9,16.0,30.32,ESE,113,0.0,3.0,48,0.00,,,0.00,0,weatherlink.com 1.10,2013-12-09 12:28:00,
2013-12-09 04:43:00,33.1,17.0,30.33,ESE,113,0.0,0.0,51,0.00,,,0.00,0,weatherlink.com 1.10,2013-12-09 12:43:00,
2013-12-09 04:58:00,33.5,16.0,30.32,SE,133,0.0,3.0,49,0.00,,,0.00,0,weatherlink.com 1.10,2013-12-09 12:58:00,
2013-12-09 05:13:00,34.1,16.0,30.32,NNE,28,1.0,4.0,47,0.00,,,0.00,0,weatherlink.com 1.10,2013-12-09 13:13:00,
2013-12-09 05:28:00,34.4,16.0,30.32,NNE,14,1.0,5.0,47,0.00,,,0.00,0,weatherlink.com 1.10,2013-12-09 13:28:00,
2013-12-09 05:43:00,34.3,16.0,30.33,NNE,22,2.0,5.0,47,0.00,,,0.00,0,weatherlink.com 1.10,2013-12-09 13:43:00,
2013-12-09 05:58:00,34.1,16.0,30.33,NNW,346,1.0,4.0,48,0.00,,,0.00,0,weatherlink.com 1.10,2013-12-09 13:58:00,
2013-12-09 06:13:00,34.0,16.0,30.33,SSE,153,0.0,3.0,47,0.00,,,0.00,0,weatherlink.com 1.10,2013-12-09 14:13:00,
2013-12-09 06:28:00,34.0,16.0,30.34,ESE,121,0.0,5.0,47,0.00,,,0.00,0,weatherlink.com 1.10,2013-12-09 14:28:00,
2013-12-09 06:43:00,34.0,15.0,30.34,NNE,30,3.0,3.0,46,0.00,,,0.00,0,weatherlink.com 1.10,2013-12-09 14:43:00,
2013-12-09 06:58:00,34.1,15.0,30.34,NNE,27,2.0,6.0,46,0.00,,,0.00,0,weatherlink.com 1.10,2013-12-09 14:58:00,
2013-12-09 07:13:00,33.9,15.0,30.35,SSE,167,1.0,5.0,46,0.00,,,0.00,0,weatherlink.com 1.10,2013-12-09 15:13:00,
2013-12-09 07:28:00,33.7,15.0,30.35,ESE,116,0.0,3.0,47,0.00,,,0.00,0,weatherlink.com 1.10,2013-12-09 15:28:00,
2013-12-09 07:43:00,33.6,16.0,30.36,ESE,121,0.0,4.0,48,0.00,,,0.00,0,weatherlink.com 1.10,2013-12-09 15:43:00,
2013-12-09 07:58:00,34.5,16.0,30.36,SE,136,1.0,3.0,47,0.00,,,0.00,0,weatherlink.com 1.10,2013-12-09 15:58:00,
2013-12-09 08:13:00,36.4,16.0,30.37,ESE,118,2.0,3.0,44,0.00,,,0.00,0,weatherlink.com 1.10,2013-12-09 16:13:00,
2013-12-09 08:28:00,38.1,17.0,30.38,SE,132,1.0,2.0,42,0.00,,,0.00,0,weatherlink.com 1.10,2013-12-09 16:28:00,
2013-12-09 08:44:00,38.8,17.0,30.38,SSE,161,0.0,4.0,41,0.00,,,0.00,0,weatherlink.com 1.10,2013-12-09 16:44:00,
2013-12-09 08:59:00,40.0,17.0,30.38,WSW,242,0.0,4.0,39,0.00,,,0.00,0,weatherlink.com 1.10,2013-12-09 16:59:00,
2013-12-09 09:14:00,40.8,17.0,30.39,NNE,14,0.0,6.0,39,0.00,,,0.00,0,weatherlink.com 1.10,2013-12-09 17:14:00,
2013-12-09 09:29:00,41.3,17.0,30.39,NE,48,2.0,5.0,37,0.00,,,0.00,0,weatherlink.com 1.10,2013-12-09 17:29:00,
2013-12-09 09:44:00,41.7,16.0,30.39,SE,132,5.0,13.0,36,0.00,,,0.00,0,weatherlink.com 1.10,2013-12-09 17:44:00,
2013-12-09 09:59:00,42.6,18.0,30.40,NE,40,1.0,10.0,37,0.00,,,0.00,0,weatherlink.com 1.10,2013-12-09 17:59:00,
2013-12-09 10:14:00,43.2,18.0,30.40,ESE,123,4.0,10.0,37,0.00,,,0.00,0,weatherlink.com 1.10,2013-12-09 18:14:00,
2013-12-09 10:29:00,43.9,19.0,30.40,SE,125,1.0,7.0,37,0.00,,,0.00,0,weatherlink.com 1.10,2013-12-09 18:29:00,
2013-12-09 10:44:00,44.4,18.0,30.39,SSE,161,2.0,11.0,35,0.00,,,0.00,0,weatherlink.com 1.10,2013-12-09 18:44:00,
2013-12-09 10:59:00,45.0,18.0,30.39,NE,49,1.0,10.0,34,0.00,,,0.00,0,weatherlink.com 1.10,2013-12-09 18:59:00,
2013-12-09 11:14:00,45.7,20.0,30.39,NE,35,5.0,12.0,36,0.00,,,0.00,0,weatherlink.com 1.10,2013-12-09 19:14:00,
2013-12-09 11:29:00,45.9,18.0,30.38,ESE,121,5.0,12.0,33,0.00,,,0.00,0,weatherlink.com 1.10,2013-12-09 19:29:00,
2013-12-09 11:44:00,45.8,17.0,30.38,North,5,5.0,14.0,32,0.00,,,0.00,0,weatherlink.com 1.10,2013-12-09 19:44:00,
2013-12-09 11:59:00,46.7,16.0,30.38,ENE,71,3.0,13.0,29,0.00,,,0.00,0,weatherlink.com 1.10,2013-12-09 19:59:00,
2013-12-09 12:14:00,47.2,18.0,30.37,NW,326,5.0,13.0,31,0.00,,,0.00,0,weatherlink.com 1.10,2013-12-09 20:14:00,
2013-12-09 12:29:00,48.2,19.0,30.37,NNE,21,4.0,10.0,31,0.00,,,0.00,0,weatherlink.com 1.10,2013-12-09 20:29:00,
2013-12-09 12:44:00,48.7,19.0,30.37,East,82,1.0,10.0,31,0.00,,,0.00,0,weatherlink.com 1.10,2013-12-09 20:44:00,
2013-12-09 12:59:00,48.4,18.0,30.36,NNE,20,3.0,12.0,30,0.00,,,0.00,0,weatherlink.com 1.10,2013-12-09 20:59:00,
2013-12-09 13:14:00,48.8,18.0,30.36,WNW,288,0.0,9.0,29,0.00,,,0.00,0,weatherlink.com 1.10,2013-12-09 21:14:00,
2013-12-09 13:29:00,49.1,19.0,30.36,NE,35,1.0,11.0,31,0.00,,,0.00,0,weatherlink.com 1.10,2013-12-09 21:29:00,
2013-12-09 13:44:00,50.1,19.0,30.36,ENE,69,1.0,9.0,29,0.00,,,0.00,0,weatherlink.com 1.10,2013-12-09 21:44:00,
2013-12-09 13:59:00,49.9,16.0,30.35,North,5,4.0,12.0,26,0.00,,,0.00,0,weatherlink.com 1.10,2013-12-09 21:59:00,
2013-12-09 14:14:00,50.8,16.0,30.35,NE,54,2.0,9.0,25,0.00,,,0.00,0,weatherlink.com 1.10,2013-12-09 22:14:00,
2013-12-09 14:29:00,51.9,17.0,30.35,WNW,288,0.0,7.0,25,0.00,,,0.00,0,weatherlink.com 1.10,2013-12-09 22:29:00,
2013-12-09 14:44:00,52.3,18.0,30.36,East,86,0.0,5.0,26,0.00,,,0.00,0,weatherlink.com 1.10,2013-12-09 22:44:00,
2013-12-09 14:59:00,52.3,16.0,30.36,ENE,64,1.0,7.0,24,0.00,,,0.00,0,weatherlink.com 1.10,2013-12-09 22:59:00,
2013-12-09 15:14:00,51.9,17.0,30.35,SW,234,0.0,7.0,25,0.00,,,0.00,0,weatherlink.com 1.10,2013-12-09 23:14:00,
2013-12-09 15:29:00,51.7,18.0,30.35,ENE,71,1.0,10.0,26,0.00,,,0.00,0,weatherlink.com 1.10,2013-12-09 23:29:00,
2013-12-09 15:44:00,51.2,17.0,30.35,ESE,113,1.0,8.0,26,0.00,,,0.00,0,weatherlink.com 1.10,2013-12-09 23:44:00,
2013-12-09 15:59:00,50.8,19.0,30.35,NE,35,2.0,7.0,28,0.00,,,0.00,0,weatherlink.com 1.10,2013-12-09 23:59:00,
2013-12-09 16:14:00,50.2,19.0,30.36,ESE,107,2.0,4.0,29,0.00,,,0.00,0,weatherlink.com 1.10,2013-12-10 00:14:00,
2013-12-09 16:29:00,49.3,18.0,30.36,NE,48,2.0,8.0,29,0.00,,,0.00,0,weatherlink.com 1.10,2013-12-10 00:29:00,
2013-12-09 16:44:00,48.1,19.0,30.35,NNE,30,0.0,5.0,31,0.00,,,0.00,0,weatherlink.com 1.10,2013-12-10 00:44:00,
2013-12-09 16:59:00,46.5,16.0,30.36,SSE,160,1.0,5.0,30,0.00,,,0.00,0,weatherlink.com 1.10,2013-12-10 00:59:00,
2013-12-09 17:14:00,45.6,17.0,30.35,West,263,2.0,6.0,32,0.00,,,0.00,0,weatherlink.com 1.10,2013-12-10 01:14:00,
2013-12-09 17:29:00,45.3,18.0,30.36,WSW,256,0.0,6.0,34,0.00,,,0.00,0,weatherlink.com 1.10,2013-12-10 01:29:00,
2013-12-09 17:44:00,44.9,19.0,30.36,NE,48,0.0,7.0,35,0.00,,,0.00,0,weatherlink.com 1.10,2013-12-10 01:44:00,
2013-12-09 17:59:00,44.3,19.0,30.36,NNE,31,0.0,5.0,37,0.00,,,0.00,0,weatherlink.com 1.10,2013-12-10 01:59:00,
2013-12-09 18:14:00,43.9,21.0,30.36,ENE,57,0.0,7.0,41,0.00,,,0.00,0,weatherlink.com 1.10,2013-12-10 02:14:00,
2013-12-09 18:30:00,43.6,22.0,30.36,East,93,3.0,4.0,43,0.00,,,0.00,0,weatherlink.com 1.10,2013-12-10 02:30:00,
2013-12-09 18:45:00,43.3,23.0,30.37,SE,128,0.0,3.0,44,0.00,,,0.00,0,weatherlink.com 1.10,2013-12-10 02:45:00,
2013-12-09 19:00:00,43.0,23.0,30.37,ESE,105,0.0,4.0,46,0.00,,,0.00,0,weatherlink.com 1.10,2013-12-10 03:00:00,
2013-12-09 19:15:00,42.1,24.0,30.38,SSE,148,0.0,1.0,48,0.00,,,0.00,0,weatherlink.com 1.10,2013-12-10 03:15:00,
2013-12-09 19:30:00,42.2,23.0,30.37,NNW,331,1.0,3.0,47,0.00,,,0.00,0,weatherlink.com 1.10,2013-12-10 03:30:00,
2013-12-09 19:46:00,42.2,24.0,30.38,West,279,1.0,5.0,49,0.00,,,0.00,0,weatherlink.com 1.10,2013-12-10 03:46:00,
2013-12-09 20:00:00,41.0,24.0,30.39,SE,126,0.0,1.0,52,0.00,,,0.00,0,weatherlink.com 1.10,2013-12-10 04:00:00,
2013-12-09 20:15:00,40.0,24.0,30.40,ESE,121,0.0,2.0,54,0.00,,,0.00,0,weatherlink.com 1.10,2013-12-10 04:15:00,
2013-12-09 20:30:00,39.2,25.0,30.40,NNW,333,0.0,1.0,57,0.00,,,0.00,0,weatherlink.com 1.10,2013-12-10 04:30:00,
2013-12-09 20:45:00,38.8,26.0,30.39,SSE,161,0.0,1.0,60,0.00,,,0.00,0,weatherlink.com 1.10,2013-12-10 04:45:00,
2013-12-09 21:00:00,38.9,28.0,30.40,NE,48,0.0,1.0,64,0.00,,,0.00,0,weatherlink.com 1.10,2013-12-10 05:00:00,
2013-12-09 21:15:00,38.8,28.0,30.40,SE,142,0.0,2.0,66,0.00,,,0.00,0,weatherlink.com 1.10,2013-12-10 05:15:00,
2013-12-09 21:30:00,38.9,28.0,30.41,SE,129,1.0,4.0,66,0.00,,,0.00,0,weatherlink.com 1.10,2013-12-10 05:30:00,
2013-12-09 21:45:00,39.0,28.0,30.40,NNW,338,2.0,2.0,64,0.00,,,0.00,0,weatherlink.com 1.10,2013-12-10 05:45:00,
2013-12-09 22:00:00,39.3,27.0,30.40,NNE,16,4.0,5.0,62,0.00,,,0.00,0,weatherlink.com 1.10,2013-12-10 06:00:00,
2013-12-09 22:15:00,39.7,25.0,30.40,ENE,68,0.0,2.0,57,0.00,,,0.00,0,weatherlink.com 1.10,2013-12-10 06:15:00,
2013-12-09 22:30:00,40.3,25.0,30.41,NW,307,0.0,1.0,54,0.00,,,0.00,0,weatherlink.com 1.10,2013-12-10 06:30:00,
2013-12-09 22:45:00,39.4,24.0,30.41,West,281,0.0,1.0,55,0.00,,,0.00,0,weatherlink.com 1.10,2013-12-10 06:45:00,
2013-12-09 23:00:00,39.9,24.0,30.41,South,173,3.0,4.0,54,0.00,,,0.00,0,weatherlink.com 1.10,2013-12-10 07:00:00,
2013-12-09 23:15:00,40.3,25.0,30.41,SE,128,0.0,5.0,55,0.00,,,0.00,0,weatherlink.com 1.10,2013-12-10 07:15:00,
2013-12-09 23:30:00,40.1,25.0,30.41,SSE,153,1.0,7.0,55,0.00,,,0.00,0,weatherlink.com 1.10,2013-12-10 07:30:00,
2013-12-09 23:45:00,40.2,25.0,30.41,SE,133,2.0,4.0,56,0.00,,,0.00,0,weatherlink.com 1.10,2013-12-10 07:45:00,